Location: Champseau
(45.8333°N, 1.7667°E)
Time: 16:34:11
(UTC+00:00)

Envisat - Visible Passes

Search period start: 25 September 2021 00:00
Search period end: 05 October 2021 00:00
Orbit: 764 x 766 km, 98.2° (Epoch: 25 September)

Date Brightness Start Highest point End Pass type
(mag) Time Alt. Az. Time Alt. Az. Time Alt. Az.
25 Sep 5.7 04:00:16 10° NE 04:04:00 20° E 04:07:43 10° SE visible
26 Sep 3.4 05:01:28 10° NNE 05:06:33 72° ESE 05:11:37 10° S visible
27 Sep 4.8 04:24:57 10° NNE 04:29:34 34° E 04:34:09 10° SSE visible
28 Sep 5.9 03:49:15 10° NE 03:52:22 16° E 03:55:28 10° SE visible
29 Sep 3.8 04:50:01 10° NNE 04:55:01 57° E 05:00:01 10° S visible
30 Sep 5.2 04:13:40 10° NE 04:17:58 27° E 04:22:14 10° SSE visible
01 Oct 6.1 03:38:31 10° ENE 03:40:43 13° E 03:42:53 10° ESE visible
01 Oct 3.0 05:15:16 10° NNE 05:20:23 86° WNW 05:25:28 10° SSW visible
02 Oct 4.2 04:38:35 10° NNE 04:43:28 45° E 04:48:19 10° S visible
03 Oct 5.6 04:02:28 10° NE 04:06:21 22° E 04:10:13 10° SE visible
04 Oct 3.2 05:03:46 10° NNE 05:08:52 77° ESE 05:13:57 10° S visible
